Zurück zum Katalog

STARLINK-5150

AktivKommunikationVLEO
NORAD 57144·PAYLOAD·🇺🇸 United States

Gestartet Jun 23, 2023 von Cape Canaveral Space Force Station

Loading…

Nächste Überflüge (nächste 24 Stunden)

TLE

AktuellSource: CelesTrak SupGP

Epoche: Sep 14, 2026, 21:32 UTC

1 57144C 23090AV  26257.89770833  .00017817  00000+0  64545-3 0  2579
2 57144  43.0029 274.5394 0001570 286.4039  61.4536 15.27563323    13

Verfolge STARLINK-5150 in Echtzeit mit AllMySat

Download on the App Store